Flag Weather past 2 weeks in Busan, South Korea

Now
43 °F

Clear.


Feels Like: 41 °F
Forecast: 51 / 67 °F
Wind: 3 mph from Northeast

Location: Pusan / Kimhae International Airport

Current Time: Nov 28, 2014 at 6:09:03 AM

Latest Report: Nov 28, 2014 at 5:00 AM


Visibility: 5 mi

Pressure: 30.12 "Hg

Humidity: 93%

Dew point: 41 °F

Location of BusanLocation

Historic Weather in Busan — Graph

°F

Busan temperature yesterday

Maximum temperature yesterday: 64 °F (at 1:00 PM)
Minimum temperature yesterday: 41 °F (at 5:00 AM)
Average temperature yesterday: 51 °F

Past Weeks' High & Low Weather Summary

 TemperatureHumidityPressure
High68 °F (Nov 22, 2:00 PM)100% (Nov 22, 7:00 AM)30.39 "Hg (Nov 22, 7:00 AM)
Low32 °F (Nov 14, 5:00 AM)14% (Nov 19, 3:00 PM)29.94 "Hg (Nov 25, 2:00 AM)
Average49 °F63%30.21 "Hg
* Reported Nov 13 5:00 AM — Nov 28 5:00 AM, Busan, Weather by CustomWeather, © 2014

Note: Actual official high and low records may vary slightly from our data, if they occured in-between our weather recording intervals... More about our weather records

Advertising

Busan weather history for previous 24 hours

 ConditionsComfort  
Time TempWeatherWind HumidityBarometerVisibility
5:00 AM
Nov 28
43 °FClear.3 mph93%30.12 "Hg5 mi
4:00 AM43 °FFog.5 mph93%30.15 "Hg5 mi
3:00 AM45 °FFog.3 mph87%30.17 "Hg5 mi
2:00 AM43 °FFog.3 mph93%30.17 "Hg5 mi
1:00 AM45 °FFog.5 mph87%30.19 "Hg6 mi
12:00 AM46 °FFog.6 mph82%30.20 "Hg6 mi
11:00 PM
Nov 27
46 °FClear.6 mph82%30.18 "Hg6 mi
10:00 PM48 °FClear.6 mph82%30.21 "Hg10 mi
9:00 PM48 °FClear.3 mph82%30.21 "Hg10 mi
8:00 PM50 °FClear.5 mph76%30.21 "Hg10 mi
7:00 PM54 °FClear.1 mph67%30.21 "Hg10 mi
6:00 PM55 °FClear.5 mph63%30.18 "Hg10 mi
5:00 PM59 °FSunny.6 mph55%30.18 "Hg10 mi
4:00 PM63 °FSunny.6 mph52%30.18 "Hg10 mi
3:00 PM63 °FPartly sunny.6 mph49%30.18 "HgN/A
2:00 PM63 °FPartly sunny.3 mph49%30.18 "HgN/A
1:00 PM64 °FPartly sunny.2 mph49%30.21 "HgN/A
12:00 PM61 °FScattered clouds.2 mph55%30.21 "HgN/A
11:00 AM55 °FSunny.2 mph72%30.24 "Hg10 mi
10:00 AM50 °FSunny.5 mph82%30.27 "Hg10 mi
9:00 AM46 °FClear.3 mph87%30.27 "Hg6 mi
8:00 AM43 °FClear.2 mph87%30.24 "Hg5 mi
7:00 AM41 °FClear.7 mph93%30.24 "Hg5 mi
6:00 AM43 °FClear.2 mph93%30.21 "Hg4 mi
Weather by CustomWeather, © 2014

See weather overviewHow to use our weather pages